Other Public Products
Issued by NWS Charleston, SC

Current Version | Previous Version | Graphics & Text | Print | Product List | Glossary On
Versions: 1 2 3 4 5 6 7 8 9 10 11 12 13 14 15 16 17 18 19 20 21 22 23 24 25 26 27 28 29 30 31 32 33 34 35 36 37 38 39 40 41 42 43 44 45 46 47 48 49 50
000
FPUS82 KCHS 241612
OPUCHS

TEST...KCHS/KSAV Gateway Observations...TEST
National Weather Service Charleston SC
1100 AM EST TUE JAN 24 2017

NOTE: "fair" indicates few or no clouds below 12,000 feet with no
significant weather and/or obstructions to visibility.

SCZ050-WAZ558-NCZ071-TXZ119-213-PAZ071-DCZ001-FLZ074-172-MI076-
NYZ176-178-MAZ016-IL014-TNZ027-NJZ106-GAZ044-MD014-241700-
...Gateway Observations for Charleston International...

CITY           SKY/WX    TMP DP  RH WIND       PRES   REMARKS
Chas Airport   SUNNY     59  43  55 NW10      29.76R
Seattle        MOCLDY    34  30  85 SE8       30.09R WCI  27
Charlotte      MOSUNNY   58  40  51 W8        29.72R
Dallas DFW     PTSUNNY   64  39  39 S20       29.65F
Dallas Love    PTSUNNY   63  40  42 SE14      29.69R
Philladelphia  CLOUDY    41  35  79 N17G26    29.42F
Wash National  PTSUNNY   46  37  71 NW14      29.55R
Baltimore      PTSUNNY   45  36  70 NW14G21   29.50S
Miami          SUNNY     73  55  53 NW10G16   29.94S
Detroit        CLOUDY    40  37  89 NW10      29.78S WCI  33
Newark         LGT RAIN  38  35  89 N18G28    29.37S WCI  28
Laguardia      LGT RAIN  39  35  86 N15       29.35S WCI  31
J F K          LGT RAIN  39  36  89 N20G32    29.33F WCI  29
Boston Logan   LGT RAIN  41  41 100 N29G43    29.41F FOG
Ft. Lauderdale SUNNY     71  54  54 NW14      29.92S
Chicago O`Hare CLOUDY    35  31  85 VRB5      29.89R WCI  31
Chicago Midway CLOUDY    37  30  75 NW9       29.89S WCI  30
Houston Bush   MOSUNNY   69  60  73 S15G24    29.84R
Houston Hobby  MOSUNNY   70  61  73 S12G23    29.84R
Nashville      CLOUDY    44  33  65 N6        29.97R
Atlanta        MOSUNNY   50  41  71 NW14      29.87R

$$

GAZ044-118-TXZ119-213-NCZ071-DCZ001-MDZ014-506-PAZ021-071-NJZ106-
NYZ176-178-MAZ106-OHZ011-021-055-MIZ076-KYZ091-ILZ014-INZ047-
MNZ060-241700-
...Gateway Observations for Savannah International...

CITY           SKY/WX    TMP DP  RH WIND       PRES   REMARKS
Savannah Arpt  SUNNY     59  43  55 NW16      29.81R
Atlanta        MOSUNNY   50  41  71 NW14      29.87R
Charlotte      MOSUNNY   58  40  51 W8        29.72R
Dallas DFW     PTSUNNY   64  39  39 S20       29.65F
Houston Bush   MOSUNNY   69  60  73 S15G24    29.84R
Wash National  PTSUNNY   46  37  71 NW14      29.55R
Wash Dulles    PTSUNNY   44  34  67 NW23G32   29.55R
Baltimore      PTSUNNY   45  36  70 NW14G21   29.50S
Philadelphia   CLOUDY    41  35  79 N17G26    29.42F
Newark         LGT RAIN  38  35  89 N18G28    29.37S WCI  28
Laguardia      LGT RAIN  39  35  86 N15       29.35S WCI  31
J F K          LGT RAIN  39  36  89 N20G32    29.33F WCI  29
Boston         LGT RAIN  41  41 100 N29G43    29.41F FOG
Pittsburg      LGT RAIN  39  37  92 NW17      29.68R WCI  30
Akron          LGT RAIN  37  33  85 NW9       29.73R WCI  30
Cleveland      CLOUDY    37  32  82 W5        29.78S WCI  33
Cincinnati     CLOUDY    42  39  89 NW10      29.87R
Columbus       LGT RAIN  42  41  97 NW9       29.81R
Detroit        CLOUDY    40  37  89 NW10      29.78S WCI  33
Chicago O`Hare CLOUDY    35  31  85 VRB5      29.89R WCI  31
Minneapolis    CLOUDY    32  25  75 NE7       29.88F WCI  26
Indianapolis   CLOUDY    40  32  73 N7        29.89S WCI  35

$$




USA.gov is the U.S. government's official web portal to all federal, state and local government web resources and services.